Vacaville, CA

12:48 AM PDT on May 25, 2017 (GMT -0700)
Nut Tree

Weather History for KVCB - August, 2012

Change the Weather History Date:

Sunday, August 12, 2012

  Actual Average Record
Temperature  
Mean Temperature 82 °F -  
Max Temperature 102 °F 93 °F 105 °F (1958)
Min Temperature 62 °F 55 °F 46 °F (1954)
Cooling Degree Days 17    
Growing Degree Days 32 (Base 50)    
Moisture  
Dew Point 44 °F    
Average Humidity 30    
Maximum Humidity 62    
Minimum Humidity 6    
Precipitation  
Precipitation 0.00 in - - ()
Sea Level Pressure  
Sea Level Pressure 29.76 in    
Wind  
Wind Speed 4 mph (SSW)    
Max Wind Speed 15 mph    
Max Gust Speed 17 mph    
Visibility 10 miles    
Events      
Averages and records for this station are not official NWS values.
T = Trace of Precipitation, MM = Missing Value Source: NWS Daily Summary

Daily Weather History Graph

Daily Weather History Graph

Search for Another Location

Airport or City:

Trip Planner

Search our weather history database for the weather conditions in past years. The results will help you decide how hot, cold, wet, or windy it might be!

Date:

Astronomy

Aug. 12, 2012 Rise Set
Actual Time 6:20 AM PDT 8:04 PM PDT
Civil Twilight 5:51 AM PDT 8:33 PM PDT
Nautical Twilight 5:17 AM PDT 9:07 PM PDT
Astronomical Twilight 4:40 AM PDT 9:43 PM PDT
Moon 1:39 AM PDT (8/12) 4:32 PM PDT (8/12)
Length of Visible Light 14h 41m
Length of Day
13h 44m
Waning Crescent, 23% of the Moon is Illuminated
Aug 12
Waning Crescent
Aug 17
New
Aug 24
First Quarter
Aug 31
Full
Sep 8
Last Quarter

Hourly Weather History & Observations

Time (PDT) Temp. Dew Point Humidity Pressure Visibility Wind Dir Wind Speed Gust Speed Precip Events Conditions
12:53 AM 72.0 °F 48.0 °F 43% 29.73 in 10.0 mi Calm Calm - N/A   Clear
1:53 AM 73.0 °F 46.0 °F 38% 29.73 in 10.0 mi WSW 12.7 mph - N/A   Clear
2:53 AM 72.0 °F 45.0 °F 38% 29.73 in 10.0 mi SW 9.2 mph - N/A   Clear
3:53 AM 64.0 °F 48.0 °F 56% 29.75 in 10.0 mi Calm Calm - N/A   Clear
4:53 AM 66.9 °F 46.9 °F 49% 29.75 in 10.0 mi SSW 5.8 mph - N/A   Clear
5:53 AM 66.0 °F 46.9 °F 50% 29.75 in 10.0 mi SSW 4.6 mph - N/A   Clear
6:53 AM 62.1 °F 48.9 °F 62% 29.78 in 10.0 mi Calm Calm - N/A   Clear
7:53 AM 68.0 °F 50.0 °F 52% 29.80 in 10.0 mi South 3.5 mph - N/A   Clear
8:53 AM 75.0 °F 52.0 °F 44% 29.81 in 10.0 mi SSW 4.6 mph - N/A   Clear
9:53 AM 80.1 °F 52.0 °F 38% 29.81 in 10.0 mi Calm Calm - N/A   Clear
10:53 AM 84.0 °F 50.0 °F 31% 29.81 in 10.0 mi Calm Calm - N/A   Clear
11:53 AM 89.1 °F 46.0 °F 22% 29.81 in 10.0 mi Variable 3.5 mph - N/A   Clear
12:53 PM 91.9 °F 42.1 °F 18% 29.79 in 10.0 mi Calm Calm - N/A   Clear
1:53 PM 98.1 °F 41.0 °F 14% 29.78 in 10.0 mi Calm Calm - N/A   Clear
2:53 PM 102.0 °F 30.0 °F 8% 29.76 in 10.0 mi Variable 6.9 mph - N/A   Clear
3:53 PM 102.0 °F 37.0 °F 11% 29.74 in 10.0 mi SW 9.2 mph - N/A   Clear
4:53 PM 100.9 °F 30.9 °F 9% 29.73 in 10.0 mi SW 9.2 mph 17.3 mph N/A   Clear
5:53 PM 100.9 °F 23.0 °F 6% 29.71 in 10.0 mi SW 15.0 mph - N/A   Clear
6:53 PM 97.0 °F 44.1 °F 16% 29.71 in 10.0 mi SSW 9.2 mph - N/A   Clear
7:53 PM 91.9 °F 45.0 °F 20% 29.72 in 10.0 mi South 6.9 mph - N/A   Clear
8:53 PM 88.0 °F 39.9 °F 18% 29.73 in 10.0 mi Calm Calm - N/A   Clear
9:53 PM 81.0 °F 46.0 °F 29% 29.75 in 10.0 mi Calm Calm - N/A   Clear
10:53 PM 80.1 °F 43.0 °F 27% 29.75 in 10.0 mi SSW 4.6 mph - N/A   Clear
11:53 PM 80.1 °F 43.0 °F 27% 29.75 in 10.0 mi SSW 8.1 mph - N/A   Clear